Date String (YYYY-MM-DD hh:mm:ss) UTC,Instrument flags,absolute air pressure of the measurement (hPa),sample flow rate (lpm),inlet stack bypass flow (lpm),air temperature of the measurement (°C),ambient temperature measured by the external sensor (°C),aerosol sample conditioner tube jacket temperature (°C),OPC LED temperature (°C),internal box temperature (°C),relative humidity of the measurement (%),span deviation,mass concentration of particles derived from Lorenz-Mie calculation of OPC scattering (μg/m³),mass concentration of particles derived from Lorenz-Mie calculation of OPC scattering (μg/m³),mass concentration of particles derived from Lorenz-Mie calculation of OPC scattering (μg/m³)
DateTimeUTC,F1_M11,P_M11,Q1_M11,Q2_M11,T1_M11,T2_M11,T3_M11,T4_M11,T5_M11,U1_M11,ZSPAN_M11,X0_M11,X2_M11,X1_M11
2023-07-29 00:00:00,SystemResetWarning,0836.6,4.99,000.00,029.9,024.9,000.0,037.9,030.5,32.2,0000.0,0011.04,0005.52,0004.20
2023-07-29 00:01:00,SystemResetWarning,0836.6,5.01,000.00,029.8,025.1,000.0,037.9,030.3,31.9,0000.0,0010.92,0005.49,0004.20
2023-07-29 00:02:00,SystemResetWarning,0836.5,5.01,000.00,029.7,025.5,000.0,037.9,030.4,31.3,0000.0,0010.69,0005.42,0004.18
2023-07-29 00:03:00,SystemResetWarning,0836.5,5.00,000.00,029.6,026.0,000.0,037.9,030.5,30.0,0000.0,0010.79,0005.40,0004.19
2023-07-29 00:04:00,SystemResetWarning,0836.5,5.00,000.00,029.6,026.4,000.0,037.9,030.6,29.8,0000.0,0011.00,0005.38,0004.19
2023-07-29 00:05:00,SystemResetWarning,0836.5,5.01,000.00,029.6,026.8,000.0,037.9,030.7,29.0,0000.0,0011.10,0005.37,0004.17
2023-07-29 00:06:00,SystemResetWarning,0836.5,5.00,000.00,029.7,027.2,000.0,037.9,030.8,28.2,0000.0,0011.08,0005.36,0004.16
2023-07-29 00:07:00,SystemResetWarning,0836.5,4.99,000.00,029.7,027.5,000.0,038.0,030.9,28.3,0000.0,0011.18,0005.36,0004.17
2023-07-29 00:08:00,SystemResetWarning,0836.4,4.99,000.00,029.7,027.6,000.0,037.9,030.9,29.0,0000.0,0011.33,0005.40,0004.17
2023-07-29 00:09:00,SystemResetWarning,0836.4,4.99,000.00,029.7,026.4,000.0,037.8,030.8,29.3,0000.0,0010.92,0005.38,0004.16
2023-07-29 00:10:00,SystemResetWarning,0836.4,5.01,000.00,029.6,025.1,000.0,037.7,030.5,29.6,0000.0,0010.71,0005.33,0004.13
2023-07-29 00:11:00,SystemResetWarning,0836.4,5.00,000.00,029.5,024.9,000.0,037.6,030.4,30.8,0000.0,0010.61,0005.29,0004.11
2023-07-29 00:12:00,SystemResetWarning,0836.4,5.01,000.00,029.4,025.2,000.0,037.7,030.2,33.1,0000.0,0010.64,0005.31,0004.09
2023-07-29 00:13:00,SystemResetWarning,0836.4,5.00,000.00,029.4,025.7,000.0,037.7,030.3,32.2,0000.0,0010.69,0005.32,0004.08
2023-07-29 00:14:00,SystemResetWarning,0836.4,4.99,000.00,029.3,026.1,000.0,037.7,030.4,33.2,0000.0,0010.51,0005.30,0004.06
2023-07-29 00:15:00,SystemResetWarning,0836.4,5.00,000.00,029.3,026.6,000.0,037.7,030.5,33.2,0000.0,0010.47,0005.26,0004.03
2023-07-29 00:16:00,SystemResetWarning,0836.4,5.00,000.00,029.4,026.9,000.0,037.7,030.6,33.5,0000.0,0010.83,0005.27,0004.01
2023-07-29 00:17:00,SystemResetWarning,0836.4,5.00,000.00,029.4,027.3,000.0,037.7,030.7,34.6,0000.0,0010.78,0005.23,0003.99
2023-07-29 00:18:00,SystemResetWarning,0836.3,4.98,000.00,029.4,027.5,000.0,037.8,030.8,35.0,0000.0,0011.21,0005.23,0003.97
2023-07-29 00:19:00,SystemResetWarning,0836.3,5.01,000.00,029.6,027.3,000.0,037.7,030.9,34.0,0000.0,0011.26,0005.20,0003.96
2023-07-29 00:20:00,SystemResetWarning,0836.2,4.98,000.00,029.6,025.8,000.0,037.6,030.7,34.0,0000.0,0011.26,0005.19,0003.94
2023-07-29 00:21:00,SystemResetWarning,0836.2,5.01,000.00,029.6,025.0,000.0,037.5,030.5,33.7,0000.0,0011.32,0005.12,0003.92
2023-07-29 00:22:00,SystemResetWarning,0836.2,5.02,000.00,029.5,025.0,000.0,037.5,030.3,34.1,0000.0,0011.69,0005.16,0003.92
2023-07-29 00:23:00,SystemResetWarning,0836.2,4.98,000.00,029.4,025.4,000.0,037.6,030.3,35.0,0000.0,0011.78,0005.16,0003.91
2023-07-29 00:24:00,SystemResetWarning,0836.2,5.03,000.00,029.5,025.9,000.0,037.6,030.4,33.9,0000.0,0011.71,0005.12,0003.90
2023-07-29 00:25:00,SystemResetWarning,0836.2,4.99,000.00,029.6,026.3,000.0,037.6,030.6,33.8,0000.0,0012.56,0005.09,0003.89
2023-07-29 00:26:00,SystemResetWarning,0836.2,5.00,000.00,029.7,026.7,000.0,037.7,030.7,33.7,0000.0,0012.77,0005.14,0003.89
2023-07-29 00:27:00,SystemResetWarning,0836.1,5.00,000.00,029.7,027.1,000.0,037.7,030.7,32.2,0000.0,0012.55,0005.09,0003.90
2023-07-29 00:28:00,SystemResetWarning,0836.1,5.01,000.00,029.8,027.4,000.0,037.8,030.8,33.1,0000.0,0012.32,0005.09,0003.91
2023-07-29 00:29:00,SystemResetWarning,0836.1,4.98,000.00,029.8,027.6,000.0,037.8,030.9,35.0,0000.0,0011.93,0005.09,0003.92
2023-07-29 00:30:00,SystemResetWarning,0836.1,5.02,000.00,029.9,026.9,000.0,037.8,030.9,35.8,0000.0,0011.93,0005.11,0003.92
2023-07-29 00:31:00,SystemResetWarning,0836.0,4.99,000.00,030.2,025.4,000.0,037.7,030.7,35.6,0000.0,0012.11,0005.14,0003.93
2023-07-29 00:32:00,SystemResetWarning,0836.0,5.02,000.00,030.4,025.0,000.0,037.6,030.8,33.8,0000.0,0012.12,0005.21,0003.94
2023-07-29 00:33:00,SystemResetWarning,0836.0,4.99,000.00,030.6,025.2,000.0,037.7,030.6,33.6,0000.0,0012.29,0005.18,0003.95
2023-07-29 00:34:00,SystemResetWarning,0836.0,5.00,000.00,030.6,025.6,000.0,037.8,030.6,33.9,0000.0,0012.25,0005.18,0003.96
2023-07-29 00:35:00,SystemResetWarning,0836.0,5.01,000.00,030.7,026.0,000.0,037.9,030.7,33.4,0000.0,0012.46,0005.16,0003.97
2023-07-29 00:36:00,SystemResetWarning,0836.0,5.01,000.00,030.7,026.5,000.0,038.0,030.8,33.1,0000.0,0012.41,0005.17,0003.98
2023-07-29 00:37:00,SystemResetWarning,0836.1,5.00,000.00,030.7,026.9,000.0,038.1,030.9,31.9,0000.0,0012.12,0005.13,0003.98
2023-07-29 00:38:00,SystemResetWarning,0836.1,5.00,000.00,030.8,027.2,000.0,038.3,031.0,31.3,0000.0,0012.22,0005.16,0003.99
2023-07-29 00:39:00,SystemResetWarning,0836.1,5.00,000.00,030.8,027.5,000.0,038.3,031.1,31.0,0000.0,0012.14,0005.20,0004.00
2023-07-29 00:40:00,SystemResetWarning,0836.1,4.99,000.00,030.8,027.0,000.0,038.3,031.1,31.2,0000.0,0012.38,0005.21,0004.01
2023-07-29 00:41:00,SystemResetWarning,0836.1,5.00,000.00,030.8,025.6,000.0,038.3,030.8,31.8,0000.0,0012.67,0005.18,0004.02
2023-07-29 00:42:00,SystemResetWarning,0836.1,5.02,000.00,030.7,025.0,000.0,038.2,030.7,32.3,0000.0,0012.41,0005.17,0004.02
2023-07-29 00:43:00,SystemResetWarning,0836.1,4.99,000.00,030.6,025.1,000.0,038.2,030.5,32.7,0000.0,0012.30,0005.18,0004.04
2023-07-29 00:44:00,SystemResetWarning,0836.1,5.00,000.00,030.5,025.5,000.0,038.3,030.5,32.7,0000.0,0011.91,0005.16,0004.05
2023-07-29 00:45:00,SystemResetWarning,0836.1,5.00,000.00,030.4,026.0,000.0,038.4,030.6,33.6,0000.0,0011.59,0005.15,0004.05
2023-07-29 00:46:00,SystemResetWarning,0836.1,5.00,000.00,030.4,026.4,000.0,038.4,030.7,33.9,0000.0,0011.91,0005.18,0004.06
2023-07-29 00:47:00,SystemResetWarning,0836.1,5.00,000.00,030.4,026.8,000.0,038.4,030.8,34.2,0000.0,0011.49,0005.24,0004.08
2023-07-29 00:48:00,SystemResetWarning,0836.2,5.00,000.00,030.4,027.2,000.0,038.4,030.9,34.0,0000.0,0011.24,0005.22,0004.09
2023-07-29 00:49:00,SystemResetWarning,0836.2,5.00,000.00,030.4,027.5,000.0,038.4,031.0,34.2,0000.0,0010.92,0005.25,0004.10
2023-07-29 00:50:00,SystemResetWarning,0836.2,4.99,000.00,030.4,027.7,000.0,038.4,031.1,33.8,0000.0,0011.16,0005.18,0004.09
2023-07-29 00:51:00,SystemResetWarning,0836.2,4.98,000.00,030.4,027.5,000.0,038.4,031.1,33.9,0000.0,0010.94,0005.12,0004.08
2023-07-29 00:52:00,SystemResetWarning,0836.2,5.00,000.00,030.4,025.9,000.0,038.3,030.9,33.7,0000.0,0010.52,0005.11,0004.07
2023-07-29 00:53:00,SystemResetWarning,0836.2,5.00,000.00,030.3,025.1,000.0,038.2,030.8,33.6,0000.0,0010.54,0005.14,0004.07
2023-07-29 00:54:00,SystemResetWarning,0836.2,5.01,000.00,030.2,025.1,000.0,038.1,030.6,34.1,0000.0,0010.92,0005.14,0004.07
2023-07-29 00:55:00,SystemResetWarning,0836.2,5.01,000.00,030.1,025.4,000.0,038.2,030.5,34.7,0000.0,0010.95,0005.14,0004.05
2023-07-29 00:56:00,SystemResetWarning,0836.3,4.99,000.00,030.0,025.9,000.0,038.2,030.6,34.7,0000.0,0011.05,0005.16,0004.05
2023-07-29 00:57:00,SystemResetWarning,0836.3,4.99,000.00,030.0,026.3,000.0,038.2,030.7,35.0,0000.0,0011.05,0005.16,0004.05
2023-07-29 00:58:00,SystemResetWarning,0836.4,5.02,000.00,030.1,026.7,000.0,038.2,030.9,34.5,0000.0,0011.19,0005.13,0004.03
2023-07-29 00:59:00,SystemResetWarning,0836.4,4.98,000.00,030.2,027.1,000.0,038.2,031.0,34.2,0000.0,0011.45,0005.18,0004.04
